ǯ����,��ʬ��,�Ǿ��������١�,ʿ���������١�,�����������١�,�Ǿ���®(m/s),ʿ����®(m/s),������®(m/s),����(���,���١ʡ��,����(hPa),�߱���(mm),�߱�����(�á�,�߱�����(mm/h),�ߤҤ礦��(hit/���),�ߤҤ礦����(�á�,�ߤҤ礦����(hit/���h),�ҡ�������(���,�ҡ������Ű���V),�Ÿ��Ű���V),�����Ű���V)
2006/08/01,00:00:01,117,171,346,0.1,1.2,2.1,28.5,84.5,1005.4,0.00,0,0.0,0.0,0,0.0,26.4,0.0,11.9,3.470
2006/08/01,00:10:01,117,156,201,0.3,1.0,1.9,28.5,84.4,1005.4,0.00,0,0.0,0.0,0,0.0,26.8,0.0,12.0,3.470
2006/08/01,00:20:01,110,163,312,0.0,1.0,2.1,28.6,84.0,1005.3,0.00,0,0.0,0.0,0,0.0,26.8,0.0,12.1,3.470
2006/08/01,00:30:01,38,193,309,0.1,0.7,1.4,28.7,83.7,1005.2,0.00,0,0.0,0.0,0,0.0,26.8,0.0,12.1,3.470
2006/08/01,00:40:01,132,177,309,0.0,0.8,1.6,28.6,83.3,1005.2,0.00,0,0.0,0.0,0,0.0,26.8,0.0,11.8,3.469
2006/08/01,00:50:01,104,151,206,0.1,0.9,1.6,28.5,83.5,1005.1,0.00,0,0.0,0.0,0,0.0,26.8,0.0,12.1,3.470
2006/08/01,01:00:01,105,148,198,0.4,1.1,2.0,28.4,83.7,1005.1,0.00,0,0.0,0.0,0,0.0,26.6,0.0,12.2,3.469
2006/08/01,01:10:01,95,126,160,0.6,1.2,1.8,28.3,83.9,1005.0,0.00,0,0.0,0.0,0,0.0,26.6,0.0,12.0,3.470
2006/08/01,01:20:01,97,143,191,0.3,0.8,1.5,28.2,84.0,1005.0,0.00,0,0.0,0.0,0,0.0,26.4,0.0,12.0,3.470
2006/08/01,01:30:01,96,138,179,0.3,1.0,2.0,28.2,84.3,1004.9,0.00,0,0.0,0.0,0,0.0,26.4,0.0,12.2,3.469
2006/08/01,01:40:01,79,125,156,0.6,1.0,1.5,28.2,84.0,1004.9,0.00,0,0.0,0.0,0,0.0,26.4,0.0,12.0,3.472
2006/08/01,01:50:01,41,117,179,0.2,0.8,1.3,28.3,83.8,1004.8,0.00,0,0.0,0.0,0,0.0,26.6,0.0,12.1,3.469
2006/08/01,02:00:01,99,145,191,0.3,0.8,1.7,28.3,83.8,1004.8,0.00,0,0.0,0.0,0,0.0,26.6,0.0,11.9,3.470
2006/08/01,02:10:01,62,147,232,0.1,0.9,1.6,28.3,83.5,1004.8,0.00,0,0.0,0.0,0,0.0,26.6,0.0,12.0,3.472
2006/08/01,02:20:01,18,172,315,0.0,0.7,1.5,28.5,82.3,1004.7,0.00,0,0.0,0.0,0,0.0,26.8,0.0,12.1,3.472
2006/08/01,02:30:01,110,157,219,0.2,0.9,1.6,28.4,82.4,1004.6,0.00,0,0.0,0.0,0,0.0,26.6,0.0,12.0,3.470
2006/08/01,02:40:01,115,165,219,0.2,0.9,1.9,28.3,82.4,1004.6,0.00,0,0.0,0.0,0,0.0,26.6,0.0,12.3,3.470
2006/08/01,02:50:01,81,143,238,0.1,1.0,2.0,28.3,82.0,1004.4,0.00,0,0.0,0.0,0,0.0,26.4,0.0,12.2,3.470
2006/08/01,03:00:01,62,135,171,0.3,1.1,2.0,28.2,82.0,1004.4,0.00,0,0.0,0.0,0,0.0,26.4,0.0,12.0,3.470
2006/08/01,03:10:01,120,161,200,0.2,1.2,2.1,28.2,82.1,1004.5,0.00,0,0.0,0.0,0,0.0,26.6,0.0,12.0,3.469
2006/08/01,03:20:01,105,155,195,0.4,1.1,1.8,28.4,81.6,1004.5,0.00,0,0.0,0.0,0,0.0,26.6,0.0,12.1,3.470
2006/08/01,03:30:01,108,146,196,0.4,1.1,2.0,28.3,82.3,1004.5,0.00,0,0.0,0.0,0,0.0,26.6,0.0,11.9,3.470
2006/08/01,03:40:01,105,151,206,0.3,0.9,1.7,28.5,81.5,1004.5,0.00,0,0.0,0.0,0,0.0,26.8,0.0,12.1,3.470
2006/08/01,03:50:01,67,150,227,0.1,1.0,2.3,28.5,81.2,1004.6,0.00,0,0.0,0.0,0,0.0,26.8,0.0,12.0,3.469
2006/08/01,04:00:01,94,141,189,0.4,1.1,2.2,28.2,82.1,1004.6,0.00,0,0.0,0.0,0,0.0,26.6,0.0,12.2,3.470
2006/08/01,04:10:01,55,129,173,0.0,1.4,2.7,28.1,82.5,1004.6,0.00,0,0.0,0.0,0,0.0,26.4,0.0,12.0,3.470
2006/08/01,04:20:01,76,130,185,0.4,1.4,2.7,27.8,83.4,1004.6,0.00,0,0.0,0.0,0,0.0,26.1,0.0,12.1,3.470
2006/08/01,04:30:01,83,130,173,0.5,1.2,2.0,27.8,83.6,1004.5,0.00,0,0.0,0.0,0,0.0,26.1,0.0,12.1,3.469
2006/08/01,04:40:01,68,116,271,0.2,1.4,2.4,27.9,83.7,1004.6,0.00,0,0.0,0.0,0,0.0,26.1,0.0,12.1,3.470
2006/08/01,04:50:01,8,135,230,0.1,1.0,2.4,27.8,84.1,1004.7,0.00,0,0.0,0.0,0,0.0,26.1,0.0,11.9,3.470
2006/08/01,05:00:01,76,149,206,0.1,0.8,1.6,27.9,84.3,1004.6,0.00,0,0.0,0.0,0,0.0,26.1,0.0,12.0,3.470
2006/08/01,05:10:01,44,143,309,0.0,0.8,1.6,27.8,84.4,1004.6,0.00,0,0.0,0.0,0,0.0,26.1,0.0,12.0,3.469
2006/08/01,05:20:01,50,151,313,0.0,0.5,1.5,27.8,83.6,1004.6,0.00,0,0.0,0.0,0,0.0,25.9,0.0,12.2,3.470
2006/08/01,05:30:01,52,123,166,0.1,0.9,1.6,27.8,83.3,1004.7,0.00,0,0.0,0.0,0,0.0,25.9,0.0,11.9,3.469
2006/08/01,05:40:01,63,139,177,0.5,1.1,1.7,27.7,84.2,1004.6,0.00,0,0.0,0.0,0,0.0,25.9,0.0,12.1,3.470
2006/08/01,05:50:01,81,134,182,0.3,1.0,1.9,27.8,84.3,1004.7,0.00,0,0.0,0.0,0,0.0,25.9,0.0,12.2,3.472
2006/08/01,06:00:01,134,170,218,0.4,1.1,1.7,27.9,84.0,1004.8,0.00,0,0.0,0.0,0,0.0,26.1,0.0,12.2,3.472
2006/08/01,06:10:01,22,178,277,0.0,0.8,1.6,27.9,84.1,1004.8,0.00,0,0.0,0.0,0,0.0,26.6,0.0,12.1,3.469
2006/08/01,06:20:01,54,149,219,0.1,0.8,1.5,28.2,82.8,1004.9,0.00,0,0.0,0.0,0,0.0,26.9,0.0,11.9,3.468
2006/08/01,06:30:01,101,140,184,0.2,0.8,2.3,28.5,82.3,1005.0,0.00,0,0.0,0.0,0,0.0,27.4,0.0,12.1,3.470
2006/08/01,06:40:01,49,140,187,0.2,0.6,1.3,29.0,80.3,1005.0,0.00,0,0.0,0.0,0,0.0,28.3,0.0,12.1,3.470
2006/08/01,06:50:01,319,132,282,0.0,0.4,1.6,29.4,78.2,1005.0,0.00,0,0.0,0.0,0,0.0,29.0,0.0,12.0,3.469
2006/08/01,07:00:01,278,96,271,0.0,0.5,1.1,30.0,75.9,1005.0,0.00,0,0.0,0.0,0,0.0,30.1,0.0,12.1,3.469
2006/08/01,07:10:01,271,69,241,0.0,0.6,2.1,30.1,75.3,1005.1,0.00,0,0.0,0.0,0,0.0,31.0,0.0,12.0,3.469
2006/08/01,07:20:01,234,42,206,0.0,0.9,2.1,29.9,76.7,1005.1,0.00,0,0.0,0.0,0,0.0,31.1,0.0,12.0,3.468
2006/08/01,07:30:01,242,50,215,0.0,0.8,2.1,30.0,77.2,1005.1,0.00,0,0.0,0.0,0,0.0,31.1,0.0,11.9,3.469
2006/08/01,07:40:01,236,50,225,0.0,0.9,2.4,30.3,75.9,1005.1,0.00,0,0.0,0.0,0,0.0,31.6,0.0,12.1,3.468
2006/08/01,07:50:01,248,71,241,0.0,1.1,2.3,30.3,75.5,1005.1,0.00,0,0.0,0.0,0,0.0,31.6,0.0,11.9,3.469
2006/08/01,08:00:01,263,74,243,0.0,1.2,3.0,30.2,74.9,1005.1,0.00,0,0.0,0.0,0,0.0,31.8,0.0,12.1,3.468
2006/08/01,08:10:01,251,55,234,0.1,1.8,4.3,30.5,75.6,1005.2,0.00,0,0.0,0.0,0,0.0,31.6,0.0,12.0,3.469
2006/08/01,08:20:01,260,64,178,0.1,1.9,4.1,30.9,73.5,1005.2,0.00,0,0.0,0.0,0,0.0,33.0,0.0,12.1,3.468
2006/08/01,08:30:01,257,77,251,0.1,2.0,4.6,30.9,72.4,1005.2,0.00,0,0.0,0.0,0,0.0,32.6,0.0,12.1,3.468
2006/08/01,08:40:01,274,92,265,0.1,1.9,4.6,31.1,71.7,1005.3,0.00,0,0.0,0.0,0,0.0,33.3,0.0,12.1,3.468
2006/08/01,08:50:01,261,78,258,0.1,1.7,3.7,30.9,72.9,1005.4,0.00,0,0.0,0.0,0,0.0,32.6,0.0,12.0,3.468
2006/08/01,09:00:01,265,76,250,0.0,2.2,4.9,30.8,73.7,1005.3,0.00,0,0.0,0.0,0,0.0,32.1,0.0,12.1,3.468
2006/08/01,09:10:01,313,99,276,0.1,2.3,5.1,31.1,71.9,1005.2,0.00,0,0.0,0.0,0,0.0,32.6,0.0,12.0,3.467
2006/08/01,09:20:01,274,89,269,0.1,2.6,6.0,31.2,70.3,1005.2,0.00,0,0.0,0.0,0,0.0,32.6,0.0,12.0,3.468
2006/08/01,09:30:01,269,85,252,0.1,2.5,5.1,31.3,70.0,1005.2,0.00,0,0.0,0.0,0,0.0,33.1,0.0,12.1,3.468
2006/08/01,09:40:01,258,74,247,0.0,2.6,5.8,31.5,69.1,1005.3,0.00,0,0.0,0.0,0,0.0,33.5,0.0,12.1,3.468
2006/08/01,09:50:01,277,79,260,0.1,2.7,6.2,31.4,68.9,1005.4,0.00,0,0.0,0.0,0,0.0,33.7,0.0,12.1,3.468
2006/08/01,10:00:01,268,89,264,0.2,2.7,6.6,31.6,66.6,1005.3,0.00,0,0.0,0.0,0,0.0,33.7,0.0,12.0,3.468
2006/08/01,10:10:01,288,97,276,0.0,2.9,6.1,31.6,66.2,1005.4,0.00,0,0.0,0.0,0,0.0,33.7,0.0,12.1,3.468
2006/08/01,10:20:01,276,95,241,0.1,2.8,7.0,31.6,67.9,1005.4,0.00,0,0.0,0.0,0,0.0,33.8,0.0,11.9,3.468
2006/08/01,10:30:01,286,99,275,0.1,2.8,5.9,31.8,66.7,1005.4,0.00,0,0.0,0.0,0,0.0,34.0,0.0,12.1,3.467
2006/08/01,10:40:01,257,67,245,0.1,2.9,6.5,32.0,65.0,1005.4,0.00,0,0.0,0.0,0,0.0,34.0,0.0,12.1,3.468
2006/08/01,10:50:01,273,92,257,0.1,2.6,5.7,32.1,62.9,1005.3,0.00,0,0.0,0.0,0,0.0,34.2,0.0,12.0,3.468
2006/08/01,11:00:01,278,97,265,0.0,2.9,6.1,31.9,64.4,1005.3,0.00,0,0.0,0.0,0,0.0,34.5,0.0,11.9,3.468
2006/08/01,11:10:01,279,91,260,0.1,3.2,6.3,31.9,65.3,1005.3,0.00,0,0.0,0.0,0,0.0,34.2,0.0,12.1,3.468
2006/08/01,11:20:01,263,81,255,0.0,2.5,6.4,32.2,64.3,1005.2,0.00,0,0.0,0.0,0,0.0,35.0,0.0,12.0,3.468
2006/08/01,11:30:01,288,85,269,0.1,3.1,6.9,31.9,67.0,1005.1,0.00,0,0.0,0.0,0,0.0,34.3,0.0,12.0,3.468
2006/08/01,11:40:01,267,86,234,0.2,2.8,7.4,32.0,65.2,1005.1,0.00,0,0.0,0.0,0,0.0,34.8,0.0,12.1,3.467
2006/08/01,11:50:01,285,102,278,0.0,3.3,7.1,32.1,64.7,1005.2,0.00,0,0.0,0.0,0,0.0,34.7,0.0,11.9,3.467
2006/08/01,12:00:01,286,107,277,0.1,3.1,6.4,32.4,62.9,1005.2,0.00,0,0.0,0.0,0,0.0,34.8,0.0,12.0,3.467
2006/08/01,12:10:01,282,96,274,0.1,2.8,6.8,32.2,63.2,1005.1,0.00,0,0.0,0.0,0,0.0,35.0,0.0,12.0,3.467
2006/08/01,12:20:01,268,92,266,0.0,3.1,7.2,32.3,64.8,1004.9,0.00,0,0.0,0.0,0,0.0,34.7,0.0,12.0,3.467
2006/08/01,12:30:01,290,100,274,0.1,3.2,7.0,32.5,64.4,1004.9,0.00,0,0.0,0.0,0,0.0,34.7,0.0,12.0,3.467
2006/08/01,12:40:01,278,96,271,0.0,2.9,6.8,32.7,63.6,1004.9,0.00,0,0.0,0.0,0,0.0,35.2,0.0,12.1,3.467
2006/08/01,12:50:01,305,119,282,0.2,3.6,7.8,32.0,65.5,1004.8,0.00,0,0.0,0.0,0,0.0,34.3,0.0,11.9,3.470
2006/08/01,13:00:01,302,112,291,0.2,3.7,8.1,31.9,66.6,1004.6,0.00,0,0.0,0.0,0,0.0,34.2,0.0,11.9,3.467
2006/08/01,13:10:01,312,107,258,0.1,3.5,7.7,31.7,66.1,1004.5,0.00,0,0.0,0.0,0,0.0,34.2,0.0,12.0,3.468
2006/08/01,13:20:01,12,117,265,0.2,3.5,7.0,32.2,63.7,1004.4,0.00,0,0.0,0.0,0,0.0,34.0,0.0,12.0,3.468
2006/08/01,13:30:01,293,110,278,0.1,2.9,7.2,32.4,65.0,1004.5,0.00,0,0.0,0.0,0,0.0,35.0,0.0,12.0,3.468
2006/08/01,13:40:01,305,113,289,0.1,3.5,7.2,32.0,65.5,1004.4,0.00,0,0.0,0.0,0,0.0,34.5,0.0,12.0,3.468
2006/08/01,13:50:01,313,113,291,0.1,3.7,7.5,31.7,65.1,1004.3,0.00,0,0.0,0.0,0,0.0,34.0,0.0,12.1,3.468
2006/08/01,14:00:01,282,99,273,0.1,3.7,7.3,32.1,65.4,1004.3,0.00,0,0.0,0.0,0,0.0,33.8,0.0,12.1,3.468
2006/08/01,14:10:01,294,111,291,0.1,3.6,7.4,32.0,64.4,1004.0,0.00,0,0.0,0.0,0,0.0,34.2,0.0,12.0,3.469
2006/08/01,14:20:01,298,117,282,0.0,3.5,7.3,32.2,63.6,1003.9,0.00,0,0.0,0.0,0,0.0,34.0,0.0,12.0,3.467
2006/08/01,14:30:01,297,110,276,0.1,3.3,7.4,32.2,62.9,1003.9,0.00,0,0.0,0.0,0,0.0,34.3,0.0,12.1,3.467
2006/08/01,14:40:01,359,116,279,0.1,4.0,8.4,31.7,64.1,1004.0,0.00,0,0.0,0.0,0,0.0,33.8,0.0,12.1,3.468
2006/08/01,14:50:01,321,113,291,0.0,3.4,6.7,32.0,64.8,1003.9,0.00,0,0.0,0.0,0,0.0,33.7,0.0,12.1,3.467
2006/08/01,15:00:01,288,95,255,0.0,3.3,7.1,32.0,64.5,1004.1,0.00,0,0.0,0.0,0,0.0,33.7,0.0,12.1,3.468
2006/08/01,15:10:01,284,104,282,0.1,3.6,7.1,31.9,64.5,1004.1,0.00,0,0.0,0.0,0,0.0,33.5,0.0,12.1,3.468
2006/08/01,15:20:01,282,102,280,0.0,3.2,8.4,31.9,66.3,1004.1,0.00,0,0.0,0.0,0,0.0,33.7,0.0,12.0,3.468
2006/08/01,15:30:01,286,104,285,0.0,3.2,7.0,32.0,66.1,1004.1,0.00,0,0.0,0.0,0,0.0,33.7,0.0,12.1,3.468
2006/08/01,15:40:01,283,104,262,0.0,3.4,7.0,31.7,66.6,1004.2,0.00,0,0.0,0.0,0,0.0,33.5,0.0,12.1,3.468
2006/08/01,15:50:01,320,104,267,0.1,2.9,5.9,31.6,65.5,1004.1,0.00,0,0.0,0.0,0,0.0,33.5,0.0,12.1,3.468
2006/08/01,16:00:01,293,107,285,0.1,3.1,7.0,31.5,66.3,1004.1,0.00,0,0.0,0.0,0,0.0,32.8,0.0,11.9,3.468
2006/08/01,16:10:01,312,117,297,0.1,3.2,6.2,31.5,67.2,1004.1,0.00,0,0.0,0.0,0,0.0,33.0,0.0,12.1,3.468
2006/08/01,16:20:01,292,99,282,0.1,2.9,7.1,31.7,66.2,1004.1,0.00,0,0.0,0.0,0,0.0,32.8,0.0,12.1,3.468
2006/08/01,16:30:01,283,91,263,0.1,2.8,6.8,31.3,66.6,1003.9,0.00,0,0.0,0.0,0,0.0,32.6,0.0,12.0,3.468
2006/08/01,16:40:01,282,100,276,0.0,2.7,7.4,31.5,66.8,1003.9,0.00,0,0.0,0.0,0,0.0,32.5,0.0,12.0,3.472
2006/08/01,16:50:01,310,117,245,0.2,3.5,7.3,31.0,68.7,1003.9,0.00,0,0.0,0.0,0,0.0,31.8,0.0,12.1,3.469
2006/08/01,17:00:01,321,107,282,0.1,3.2,8.4,30.9,68.6,1003.9,0.00,0,0.0,0.0,0,0.0,31.5,0.0,12.0,3.468
2006/08/01,17:10:01,296,112,282,0.1,3.5,6.6,30.8,68.8,1003.9,0.00,0,0.0,0.0,0,0.0,31.1,0.0,12.1,3.468
2006/08/01,17:20:01,309,111,286,0.1,3.2,6.7,30.8,70.9,1003.9,0.00,0,0.0,0.0,0,0.0,31.3,0.0,12.0,3.468
2006/08/01,17:30:01,302,99,268,0.1,2.6,6.2,30.9,69.5,1003.8,0.00,0,0.0,0.0,0,0.0,31.1,0.0,11.9,3.468
2006/08/01,17:40:01,318,108,282,0.1,3.1,5.9,30.6,71.4,1003.7,0.00,0,0.0,0.0,0,0.0,30.6,0.0,12.0,3.469
2006/08/01,17:50:01,295,105,278,0.1,2.6,6.3,30.5,70.9,1003.8,0.00,0,0.0,0.0,0,0.0,30.6,0.0,11.9,3.468
2006/08/01,18:00:01,291,109,286,0.1,2.9,6.8,30.3,71.9,1003.8,0.00,0,0.0,0.0,0,0.0,30.1,0.0,12.1,3.468
2006/08/01,18:10:01,288,106,282,0.0,2.4,5.6,30.3,72.3,1003.8,0.00,0,0.0,0.0,0,0.0,30.3,0.0,12.0,3.469
2006/08/01,18:20:01,281,100,279,0.1,2.6,6.7,30.2,72.8,1003.8,0.00,0,0.0,0.0,0,0.0,29.6,0.0,12.0,3.469
2006/08/01,18:30:01,330,104,240,0.1,2.5,5.6,30.1,73.3,1003.9,0.00,0,0.0,0.0,0,0.0,29.3,0.0,12.0,3.469
2006/08/01,18:40:01,284,98,256,0.1,2.3,5.8,30.0,74.2,1004.0,0.00,0,0.0,0.0,0,0.0,29.3,0.0,12.1,3.468
2006/08/01,18:50:01,282,99,277,0.0,2.4,5.9,29.8,74.6,1003.9,0.00,0,0.0,0.0,0,0.0,28.8,0.0,12.1,3.470
2006/08/01,19:00:01,274,93,235,0.0,2.7,6.0,29.7,74.5,1003.8,0.00,0,0.0,0.0,0,0.0,28.5,0.0,11.9,3.468
2006/08/01,19:10:01,284,95,274,0.0,2.4,7.0,29.5,74.8,1003.9,0.00,0,0.0,0.0,0,0.0,27.8,0.0,11.9,3.469
2006/08/01,19:20:01,290,103,277,0.0,2.1,4.9,29.4,74.4,1004.0,0.00,0,0.0,0.0,0,0.0,27.8,0.0,11.9,3.469
2006/08/01,19:30:01,292,105,279,0.0,2.2,5.7,29.4,71.9,1004.1,0.00,0,0.0,0.0,0,0.0,27.8,0.0,12.1,3.470
2006/08/01,19:40:01,304,100,278,0.1,2.3,6.1,29.4,73.8,1004.3,0.00,0,0.0,0.0,0,0.0,27.8,0.0,12.1,3.469
2006/08/01,19:50:01,282,99,278,0.0,2.2,5.8,29.4,75.2,1004.5,0.00,0,0.0,0.0,0,0.0,27.8,0.0,12.1,3.469
2006/08/01,20:00:01,264,79,259,0.0,1.9,5.8,29.4,75.3,1004.7,0.00,0,0.0,0.0,0,0.0,27.6,0.0,12.1,3.470
2006/08/01,20:10:01,273,91,268,0.1,2.3,5.3,29.4,74.4,1004.7,0.00,0,0.0,0.0,0,0.0,27.8,0.0,12.1,3.469
2006/08/01,20:20:01,13,102,178,0.1,2.0,5.1,29.3,75.1,1004.8,0.00,0,0.0,0.0,0,0.0,27.6,0.0,11.9,3.470
2006/08/01,20:30:01,282,90,270,0.0,1.6,4.8,29.2,74.4,1004.8,0.00,0,0.0,0.0,0,0.0,27.4,0.0,12.1,3.469
2006/08/01,20:40:01,257,82,206,0.1,1.6,4.0,29.1,75.0,1004.8,0.00,0,0.0,0.0,0,0.0,27.4,0.0,11.9,3.469
2006/08/01,20:50:01,279,92,271,0.0,1.3,3.2,29.1,74.8,1004.8,0.00,0,0.0,0.0,0,0.0,27.4,0.0,12.0,3.469
2006/08/01,21:00:01,284,94,271,0.0,1.3,2.7,28.9,75.9,1004.6,0.00,0,0.0,0.0,0,0.0,27.3,0.0,12.0,3.470
2006/08/01,21:10:01,282,97,271,0.0,1.1,2.9,29.0,75.7,1004.6,0.00,0,0.0,0.0,0,0.0,27.1,0.0,12.1,3.470
2006/08/01,21:20:01,55,108,274,0.1,1.0,1.8,28.8,76.7,1004.7,0.00,0,0.0,0.0,0,0.0,27.1,0.0,12.0,3.469
2006/08/01,21:30:01,51,115,200,0.2,0.7,1.8,28.7,77.4,1004.8,0.00,0,0.0,0.0,0,0.0,26.8,0.0,11.9,3.469
2006/08/01,21:40:01,345,131,311,0.0,0.7,1.5,28.4,78.6,1004.9,0.00,0,0.0,0.0,0,0.0,26.6,0.0,12.0,3.468
2006/08/01,21:50:01,48,123,250,0.0,1.1,2.1,28.3,79.5,1004.8,0.00,0,0.0,0.0,0,0.0,26.4,0.0,12.0,3.470
2006/08/01,22:00:01,84,120,177,0.2,1.1,2.2,28.4,79.5,1004.7,0.00,0,0.0,0.0,0,0.0,26.6,0.0,12.1,3.469
2006/08/01,22:10:01,324,114,292,0.1,1.2,2.2,28.3,79.8,1004.8,0.00,0,0.0,0.0,0,0.0,26.6,0.0,12.2,3.469
2006/08/01,22:20:01,45,120,191,0.2,1.0,2.2,28.3,79.9,1004.8,0.00,0,0.0,0.0,0,0.0,26.4,0.0,12.0,3.469
2006/08/01,22:30:01,57,116,191,0.1,1.0,1.9,28.4,79.6,1004.8,0.00,0,0.0,0.0,0,0.0,26.6,0.0,12.1,3.469
2006/08/01,22:40:01,22,99,206,0.1,1.4,3.1,28.3,79.7,1004.8,0.00,0,0.0,0.0,0,0.0,26.6,0.0,11.9,3.469
2006/08/01,22:50:01,308,116,290,0.1,1.4,3.6,28.2,80.4,1004.8,0.00,0,0.0,0.0,0,0.0,26.1,0.0,12.3,3.470
2006/08/01,23:00:01,358,116,175,0.2,1.3,2.3,28.0,81.1,1004.6,0.00,0,0.0,0.0,0,0.0,26.1,0.0,12.2,3.470
2006/08/01,23:10:01,306,116,276,0.0,1.5,2.8,28.1,80.5,1004.5,0.00,0,0.0,0.0,0,0.0,26.3,0.0,12.2,3.472
2006/08/01,23:20:01,313,105,282,0.1,1.5,3.9,28.2,79.4,1004.4,0.00,0,0.0,0.0,0,0.0,25.9,0.0,12.2,3.469
2006/08/01,23:30:01,309,108,223,0.1,1.5,3.6,28.1,79.6,1004.3,0.00,0,0.0,0.0,0,0.0,26.4,0.0,12.2,3.470
2006/08/01,23:40:01,48,112,282,0.3,1.9,3.6,28.1,79.1,1004.2,0.00,0,0.0,0.0,0,0.0,26.3,0.0,12.0,3.470
2006/08/01,23:50:01,293,109,269,0.0,1.8,4.1,28.2,77.7,1004.2,0.00,0,0.0,0.0,0,0.0,26.4,0.0,12.0,3.470
2006/08/02,00:00:01,299,107,284,0.0,1.7,3.9,28.5,77.2,1004.2,0.00,0,0.0,0.0,0,0.0,26.6,0.0,12.1,3.469
2006/08/02,00:10:01,309,125,286,0.0,1.2,2.7,28.2,78.8,1004.1,0.00,0,0.0,0.0,0,0.0,26.4,0.0,12.0,3.469
2006/08/02,00:20:01,318,109,186,0.0,1.2,3.0,28.1,79.2,1004.1,0.00,0,0.0,0.0,0,0.0,26.3,0.0,11.9,3.470
2006/08/02,00:30:01,315,123,189,0.1,1.1,2.6,28.1,80.5,1004.1,0.00,0,0.0,0.0,0,0.0,25.8,0.0,12.1,3.470
2006/08/02,00:40:01,355,120,250,0.1,1.4,2.7,28.0,81.1,1003.9,0.00,0,0.0,0.0,0,0.0,26.1,0.0,12.2,3.470
2006/08/02,00:50:01,31,109,194,0.4,1.7,3.4,28.2,80.7,1003.8,0.00,0,0.0,0.0,0,0.0,26.4,0.0,12.1,3.470
2006/08/02,01:00:01,312,103,282,0.1,1.6,3.8,28.4,80.2,1003.8,0.00,0,0.0,0.0,0,0.0,26.6,0.0,12.2,3.470
2006/08/02,01:10:01,297,112,283,0.0,1.5,3.1,28.4,80.6,1003.7,0.00,0,0.0,0.0,0,0.0,26.8,0.0,11.9,3.470
2006/08/02,01:20:01,60,118,169,0.3,1.2,2.3,28.3,81.7,1003.8,0.00,0,0.0,0.0,0,0.0,26.8,0.0,12.1,3.470
2006/08/02,01:30:01,301,115,275,0.0,1.3,3.1,28.3,80.6,1003.7,0.00,0,0.0,0.0,0,0.0,26.8,0.0,11.9,3.469
2006/08/02,01:40:01,300,103,282,0.0,1.1,2.7,28.3,79.3,1003.9,0.00,0,0.0,0.0,0,0.0,26.4,0.0,12.2,3.469
2006/08/02,01:50:01,283,97,268,0.0,1.4,4.0,28.6,77.9,1003.7,0.00,0,0.0,0.0,0,0.0,26.6,0.0,12.2,3.469
2006/08/02,02:00:01,271,84,253,0.0,1.5,4.0,28.7,77.5,1003.6,0.00,0,0.0,0.0,0,0.0,26.9,0.0,12.1,3.470
2006/08/02,02:10:01,337,95,271,0.0,1.5,3.5,28.7,77.2,1003.7,0.00,0,0.0,0.0,0,0.0,26.9,0.0,12.1,3.470
2006/08/02,02:20:01,330,119,286,0.0,1.3,3.3,28.5,78.1,1003.7,0.00,0,0.0,0.0,0,0.0,26.9,0.0,12.0,3.470
2006/08/02,02:30:01,56,140,309,0.0,1.3,3.1,28.4,78.6,1003.8,0.00,0,0.0,0.0,0,0.0,26.8,0.0,12.1,3.470
2006/08/02,02:40:01,320,115,222,0.1,0.8,2.0,28.4,78.7,1003.8,0.00,0,0.0,0.0,0,0.0,26.6,0.0,12.2,3.470
2006/08/02,02:50:01,43,127,303,0.1,0.7,1.8,28.4,78.6,1003.9,0.00,0,0.0,0.0,0,0.0,26.8,0.0,12.1,3.469
2006/08/02,03:00:01,115,170,229,0.1,0.8,1.5,28.4,78.8,1003.6,0.00,0,0.0,0.0,0,0.0,26.8,0.0,11.9,3.469
2006/08/02,03:10:01,15,177,309,0.0,0.8,1.8,28.3,79.1,1003.5,0.00,0,0.0,0.0,0,0.0,26.6,0.0,12.0,3.468
2006/08/02,03:20:01,49,137,193,0.2,1.1,2.6,28.2,80.0,1003.6,0.00,0,0.0,0.0,0,0.0,26.4,0.0,12.2,3.469
2006/08/02,03:30:01,70,123,164,0.2,1.1,2.1,28.1,80.9,1003.5,0.00,0,0.0,0.0,0,0.0,26.3,0.0,12.1,3.470
2006/08/02,03:40:01,309,106,255,0.1,1.1,2.4,28.1,80.9,1003.6,0.00,0,0.0,0.0,0,0.0,26.4,0.0,12.0,3.469
2006/08/02,03:50:01,25,107,276,0.1,1.2,2.7,28.3,79.9,1003.7,0.00,0,0.0,0.0,0,0.0,26.6,0.0,12.2,3.469
2006/08/02,04:00:01,288,104,267,0.1,1.2,2.7,28.4,80.0,1003.8,0.00,0,0.0,0.0,0,0.0,26.6,0.0,12.2,3.470
2006/08/02,04:10:01,332,118,288,0.0,1.2,3.2,28.3,80.5,1003.8,0.00,0,0.0,0.0,0,0.0,26.8,0.0,12.0,3.469
2006/08/02,04:20:01,256,73,242,0.0,1.4,3.9,28.8,78.3,1003.9,0.00,0,0.0,0.0,0,0.0,26.9,0.0,11.9,3.470
2006/08/02,04:30:01,252,67,231,0.1,1.5,3.8,29.0,78.0,1003.9,0.00,0,0.0,0.0,0,0.0,27.3,0.0,12.1,3.470
2006/08/02,04:40:01,257,78,230,0.1,1.5,3.7,29.1,77.6,1004.0,0.00,0,0.0,0.0,0,0.0,27.4,0.0,12.1,3.470
2006/08/02,04:50:01,270,84,263,0.1,1.7,4.8,28.9,82.1,1004.1,0.02,250,0.0,0.0,0,0.0,27.3,0.0,12.1,3.472
2006/08/02,05:00:01,273,85,260,0.1,2.6,5.8,28.4,83.4,1004.2,0.02,300,0.0,0.0,0,0.0,26.6,0.0,12.2,3.469
2006/08/02,05:10:01,15,112,286,0.0,2.6,6.4,28.0,82.6,1004.2,0.00,0,0.0,0.0,0,0.0,26.1,0.0,12.2,3.470
2006/08/02,05:20:01,348,118,289,0.0,2.0,3.7,27.8,81.7,1004.3,0.00,0,0.0,0.0,0,0.0,26.1,0.0,12.1,3.472
2006/08/02,05:30:01,309,112,282,0.0,1.7,4.2,27.7,79.6,1004.3,0.00,0,0.0,0.0,0,0.0,25.9,0.0,12.2,3.470
2006/08/02,05:40:01,26,123,176,0.4,1.9,3.5,27.5,80.2,1004.2,0.00,0,0.0,0.0,0,0.0,25.9,0.0,12.2,3.469
2006/08/02,05:50:01,67,118,177,0.1,1.8,3.8,27.6,80.2,1004.5,0.00,0,0.0,0.0,0,0.0,25.9,0.0,12.2,3.470
2006/08/02,06:00:01,290,109,215,0.0,1.7,3.7,28.0,81.4,1004.4,0.00,0,0.0,0.0,0,0.0,26.1,0.0,12.2,3.470
2006/08/02,06:10:01,346,108,287,0.0,2.5,5.6,28.2,81.7,1004.4,0.00,0,0.0,0.0,0,0.0,26.6,0.0,12.1,3.469
2006/08/02,06:20:01,13,124,190,0.4,3.9,9.0,27.2,83.1,1004.6,0.12,240,3.9,0.0,0,0.0,26.1,0.0,12.1,3.470
2006/08/02,06:30:01,53,135,183,0.4,3.5,9.1,26.5,87.4,1004.5,0.98,600,0.4,0.0,0,0.0,24.8,0.0,11.9,3.469
2006/08/02,06:40:01,300,115,171,0.2,2.1,4.6,26.6,88.1,1004.6,0.03,230,0.0,0.0,0,0.0,24.9,0.0,12.0,3.470
2006/08/02,06:50:01,12,107,151,0.5,2.1,4.0,26.4,86.9,1004.5,0.00,0,0.0,0.0,0,0.0,25.3,0.0,12.0,3.470
2006/08/02,07:00:01,56,112,240,0.1,2.0,3.7,26.7,85.7,1004.5,0.00,0,0.0,0.0,0,0.0,26.1,0.0,12.2,3.470
2006/08/02,07:10:01,300,110,206,0.1,1.4,2.4,27.3,84.3,1004.7,0.00,0,0.0,0.0,0,0.0,27.3,0.0,12.1,3.470
2006/08/02,07:20:01,309,102,282,0.0,1.2,2.7,27.9,81.9,1004.8,0.00,0,0.0,0.0,0,0.0,28.3,0.0,12.1,3.469
2006/08/02,07:30:01,289,98,259,0.0,1.4,2.8,28.2,80.5,1005.0,0.00,0,0.0,0.0,0,0.0,29.3,0.0,12.0,3.468
2006/08/02,07:40:01,281,97,261,0.1,1.7,3.9,28.6,78.4,1004.9,0.00,0,0.0,0.0,0,0.0,29.1,0.0,12.1,3.468
2006/08/02,07:50:01,286,103,280,0.0,1.7,3.8,28.8,78.0,1004.8,0.00,0,0.0,0.0,0,0.0,29.6,0.0,12.1,3.468
2006/08/02,08:00:01,275,90,268,0.0,1.4,3.5,29.3,77.4,1004.7,0.00,0,0.0,0.0,0,0.0,30.5,0.0,12.2,3.469
2006/08/02,08:10:01,282,91,267,0.0,1.9,3.8,29.2,77.8,1004.9,0.00,0,0.0,0.0,0,0.0,30.5,0.0,12.1,3.468
2006/08/02,08:20:01,278,85,263,0.0,1.7,3.8,29.6,77.0,1004.8,0.00,0,0.0,0.0,0,0.0,31.1,0.0,12.0,3.469
2006/08/02,08:30:01,267,82,260,0.0,2.2,4.5,29.8,74.3,1004.9,0.00,0,0.0,0.0,0,0.0,31.3,0.0,11.9,3.469
2006/08/02,08:40:01,301,104,272,0.1,2.3,5.0,30.0,73.7,1004.9,0.00,0,0.0,0.0,0,0.0,31.5,0.0,11.9,3.468
2006/08/02,08:50:01,297,103,282,0.1,2.4,5.9,29.9,75.5,1004.9,0.00,0,0.0,0.0,0,0.0,31.6,0.0,12.0,3.469
2006/08/02,09:00:01,275,89,271,0.0,2.0,5.4,30.5,73.2,1004.9,0.00,0,0.0,0.0,0,0.0,32.1,0.0,12.1,3.468
2006/08/02,09:10:01,282,81,253,0.0,2.5,5.0,30.4,73.8,1005.0,0.00,0,0.0,0.0,0,0.0,32.1,0.0,12.1,3.468
2006/08/02,09:20:01,270,81,253,0.0,2.4,5.3,30.6,72.9,1005.0,0.00,0,0.0,0.0,0,0.0,32.6,0.0,11.9,3.468
2006/08/02,09:30:01,341,101,277,0.1,2.8,5.9,30.8,71.9,1004.9,0.00,0,0.0,0.0,0,0.0,32.6,0.0,12.0,3.467
2006/08/02,09:40:01,267,83,264,0.1,2.7,6.8,30.8,72.4,1004.9,0.00,0,0.0,0.0,0,0.0,32.6,0.0,12.1,3.467
2006/08/02,09:50:01,272,88,260,0.1,3.0,6.9,30.9,73.0,1004.8,0.00,0,0.0,0.0,0,0.0,32.8,0.0,12.1,3.468
2006/08/02,10:00:01,294,89,201,0.0,3.1,7.1,30.9,73.8,1004.8,0.00,0,0.0,0.0,0,0.0,32.6,0.0,12.2,3.468
2006/08/02,10:10:01,268,88,264,0.1,2.8,6.5,31.5,72.0,1004.9,0.00,0,0.0,0.0,0,0.0,33.8,0.0,12.1,3.468
2006/08/02,10:20:01,269,86,267,0.1,2.8,6.4,31.2,74.9,1004.9,0.00,0,0.0,0.0,0,0.0,33.0,0.0,12.1,3.467
2006/08/02,10:30:01,289,85,264,0.0,2.6,6.6,31.1,74.3,1004.9,0.00,0,0.0,0.0,0,0.0,33.3,0.0,12.0,3.468
2006/08/02,10:40:01,266,84,253,0.0,3.4,7.7,31.1,70.8,1004.7,0.00,0,0.0,0.0,0,0.0,33.0,0.0,12.0,3.465
2006/08/02,10:50:01,278,90,245,0.1,3.8,8.4,31.4,70.9,1004.8,0.00,0,0.0,0.0,0,0.0,33.0,0.0,12.0,3.468
2006/08/02,11:00:01,271,91,257,0.2,3.4,8.7,31.3,70.6,1004.8,0.00,0,0.0,0.0,0,0.0,33.1,0.0,11.9,3.468
2006/08/02,11:10:01,290,94,258,0.2,3.9,8.0,31.6,70.9,1004.8,0.00,0,0.0,0.0,0,0.0,33.3,0.0,12.1,3.469
2006/08/02,11:20:01,282,94,265,0.2,3.9,8.3,31.8,70.5,1004.8,0.00,0,0.0,0.0,0,0.0,33.7,0.0,12.2,3.467
2006/08/02,11:30:01,281,88,264,0.1,3.5,8.6,32.0,70.0,1004.7,0.00,0,0.0,0.0,0,0.0,33.8,0.0,12.2,3.468
2006/08/02,11:40:01,288,99,276,0.2,3.0,6.1,32.0,71.1,1004.6,0.00,0,0.0,0.0,0,0.0,34.3,0.0,11.9,3.465
2006/08/02,11:50:01,275,88,261,0.2,3.4,8.0,31.9,67.8,1004.6,0.00,0,0.0,0.0,0,0.0,33.7,0.0,12.0,3.467
2006/08/02,12:00:01,268,85,260,0.0,3.2,7.4,32.1,68.9,1004.6,0.00,0,0.0,0.0,0,0.0,34.0,0.0,11.9,3.467
2006/08/02,12:10:01,279,93,262,0.0,3.1,7.6,32.3,64.6,1004.5,0.00,0,0.0,0.0,0,0.0,34.3,0.0,12.1,3.468
2006/08/02,12:20:01,321,98,269,0.1,3.8,8.5,32.2,66.6,1004.4,0.00,0,0.0,0.0,0,0.0,34.2,0.0,12.0,3.468
2006/08/02,12:30:01,278,91,267,0.1,3.3,7.8,32.5,66.0,1004.3,0.00,0,0.0,0.0,0,0.0,34.7,0.0,11.8,3.465
2006/08/02,12:40:01,271,85,258,0.1,3.2,7.9,31.8,68.9,1004.3,0.00,0,0.0,0.0,0,0.0,33.5,0.0,12.1,3.468
2006/08/02,12:50:01,282,87,266,0.1,2.9,7.1,31.9,69.7,1004.3,0.00,0,0.0,0.0,0,0.0,33.5,0.0,12.1,3.468
2006/08/02,13:00:01,262,76,215,0.2,3.1,7.4,32.7,67.4,1004.2,0.00,0,0.0,0.0,0,0.0,34.7,0.0,12.0,3.468
2006/08/02,13:10:01,255,73,183,0.1,3.0,8.1,32.8,63.2,1004.2,0.00,0,0.0,0.0,0,0.0,35.2,0.0,12.0,3.468
2006/08/02,13:20:01,279,94,271,0.1,3.4,7.5,32.4,64.9,1004.1,0.00,0,0.0,0.0,0,0.0,34.7,0.0,12.1,3.468
2006/08/02,13:30:01,282,93,266,0.1,3.8,8.4,32.1,68.0,1004.0,0.00,0,0.0,0.0,0,0.0,34.2,0.0,12.1,3.468
2006/08/02,13:40:01,277,91,269,0.1,3.5,8.7,32.4,64.4,1003.9,0.00,0,0.0,0.0,0,0.0,33.8,0.0,12.0,3.468
2006/08/02,13:50:01,313,91,270,0.1,3.2,7.6,32.3,64.5,1003.8,0.00,0,0.0,0.0,0,0.0,34.5,0.0,12.1,3.468
2006/08/02,14:00:01,280,86,245,0.1,3.5,8.6,32.3,66.8,1003.8,0.00,0,0.0,0.0,0,0.0,34.8,0.0,12.1,3.467
2006/08/02,14:10:01,266,86,253,0.1,3.5,8.0,32.1,68.0,1003.6,0.00,0,0.0,0.0,0,0.0,34.3,0.0,12.1,3.468
2006/08/02,14:20:01,269,90,218,0.1,3.9,8.6,32.3,67.1,1003.6,0.00,0,0.0,0.0,0,0.0,34.0,0.0,12.2,3.468
2006/08/02,14:30:01,277,90,270,0.0,3.5,9.0,32.2,67.0,1003.6,0.00,0,0.0,0.0,0,0.0,34.2,0.0,12.1,3.467
2006/08/02,14:40:01,273,89,261,0.0,3.2,7.5,32.4,64.3,1003.6,0.00,0,0.0,0.0,0,0.0,34.3,0.0,12.0,3.467
2006/08/02,14:50:01,270,89,260,0.2,3.3,8.8,32.0,66.0,1003.5,0.00,0,0.0,0.0,0,0.0,33.8,0.0,12.0,3.468